GFSGL_con_lsi_000.txt.gz
Lid_Strength_Index
18 19 20 20 20 20 20 20 20 20 20 20 20 20 20 20 19 18 18 18 18 17 16 16 15 14 14 13 11 10 9 10 12 13 10 6 7 5 3 2 3 3 4
19 20 20 20 20 21 20 20 21 21 21 21 21 21 21 21 20 20 20 20 20 19 18 18 17 16 16 13 12 11 12 11 11 14 9 8 8 6 3 4 3 3 4
20 21 21 21 21 21 21 21 22 22 22 22 22 22 22 22 22 21 21 21 21 20 20 19 19 18 16 14 14 14 12 12 11 13 12 8 8 5 3 4 5 5 6
21 21 21 21 21 22 22 22 23 23 23 23 23 23 23 22 22 22 22 21 21 20 19 19 18 18 16 16 15 15 13 14 13 14 14 10 9 5 3 5 6 6 8
22 22 22 22 22 23 23 23 23 24 24 24 24 23 23 22 22 22 21 20 20 19 18 18 17 15 15 15 15 15 15 15 15 14 13 11 10 6 6 5 8 8 9
22 22 23 23 24 24 24 25 25 25 24 24 24 23 23 22 21 20 19 19 19 19 18 17 15 15 15 14 13 12 12 15 16 15 15 14 12 8 6 6 8 10 13
22 23 24 24 25 25 25 26 25 25 25 24 24 23 23 23 20 19 18 18 18 18 17 16 15 15 14 14 13 13 12 12 11 13 14 13 12 10 7 7 9 12 13
23 25 25 25 26 26 26 26 26 25 25 25 25 24 23 22 20 19 18 18 17 18 17 15 15 15 14 13 13 13 13 13 13 12 12 12 10 8 8 7 9 13 13
25 25 25 26 27 27 28 27 26 25 26 26 24 24 24 23 21 18 17 18 18 17 16 14 15 15 14 13 14 14 12 11 11 11 11 10 8 7 6 8 11 13 15
24 25 25 26 28 28 27 27 26 27 26 25 24 24 23 23 20 17 16 17 18 17 15 14 14 15 13 12 13 12 12 11 11 12 12 11 9 7 7 9 11 14 14
25 26 27 27 28 28 28 26 27 27 26 26 25 23 22 20 19 16 15 16 16 15 15 16 16 15 14 13 12 12 11 10 11 12 11 11 9 8 8 9 12 13 14
27 27 28 29 27 27 30 28 28 27 26 25 24 22 20 19 18 16 15 14 13 15 17 17 17 14 13 12 12 11 10 10 10 11 13 11 10 9 9 10 12 12 12
28 29 29 29 28 28 28 27 25 26 25 24 22 22 21 19 17 16 15 15 14 16 17 16 16 14 12 13 12 12 12 12 11 11 12 12 9 8 8 11 11 11 12
29 29 29 28 28 28 26 25 25 24 24 22 22 21 21 19 18 16 16 17 15 16 16 19 17 15 14 13 13 12 11 11 11 11 10 10 9 9 10 10 12 12 14
28 28 28 27 27 27 26 25 24 23 22 21 20 20 20 20 18 16 16 17 17 17 19 20 19 18 18 18 17 16 15 14 12 10 10 10 9 9 10 11 12 13 14
28 28 27 27 27 27 26 25 24 23 21 19 18 18 18 17 16 15 15 15 15 16 21 22 21 20 20 19 19 19 18 17 16 15 12 9 10 9 12 12 13 14 14
27 28 28 28 27 27 27 25 25 24 22 21 19 18 18 17 16 16 16 15 17 19 23 23 22 22 21 20 20 20 20 18 17 17 16 15 10 11 13 12 13 13 10
28 28 28 28 27 28 27 27 26 26 26 24 21 19 19 17 17 17 16 17 21 21 22 23 23 22 22 21 21 20 20 19 18 18 18 16 16 15 13 12 13 11 10
30 30 29 29 28 28 27 27 26 26 26 26 24 22 23 19 19 18 17 21 22 23 23 23 22 22 22 21 21 20 21 20 20 20 19 18 19 19 14 12 11 11 10
29 30 29 28 29 28 27 26 26 26 26 26 26 25 25 22 23 22 21 21 23 23 23 23 22 21 22 21 21 20 21 20 20 21 21 20 22 23 13 11 11 11 10
29 30 29 28 27 27 27 27 27 27 27 27 26 27 19 25 24 22 22 22 23 23 23 23 22 22 21 21 21 20 22 20 21 22 22 22 23 22 14 10 12 11 11
28 29 28 28 28 28 28 28 28 27 27 27 26 25 22 24 24 23 22 22 23 23 22 22 23 22 21 22 20 21 22 21 22 23 23 23 22 22 19 12 12 11 12
28 29 29 28 28 30 29 29 28 27 26 27 26 26 25 25 25 24 24 23 23 23 22 22 22 22 21 21 19 20 21 21 22 23 24 24 24 23 21 13 12 12 11
28 27 28 28 28 28 28 28 28 30 28 27 26 26 26 26 25 24 24 24 24 23 22 22 22 22 22 21 19 20 19 19 22 23 23 24 24 23 22 14 11 11 11
27 27 28 28 29 28 29 28 27 28 27 26 26 26 26 25 25 24 24 24 25 24 23 22 21 21 21 20 19 19 19 18 21 22 23 24 25 24 23 17 11 11 11
27 28 28 29 29 29 28 27 28 27 28 27 26 27 27 26 25 25 25 26 25 25 24 23 21 21 20 19 17 18 19 18 20 22 23 24 25 25 25 24 22 16 11

GFSGL_con_lsi_003.txt.gz
Lid_Strength_Index
15 15 16 17 17 18 19 19 19 19 19 19 20 20 20 20 20 20 20 20 20 19 18 18 17 16 16 16 15 15 15 14 16 14 13 11 10 9 7 6 5 6 5
15 16 17 18 19 19 20 20 20 20 20 20 20 21 21 21 21 21 22 21 21 21 20 20 20 18 19 18 18 17 16 15 16 16 13 13 12 10 9 9 5 6 6
16 17 18 19 20 20 20 20 21 21 21 21 21 22 22 22 22 22 22 22 22 21 21 21 20 19 19 19 18 18 18 16 16 16 16 14 13 11 10 8 6 6 5
17 18 19 20 20 20 21 21 21 22 22 22 22 23 23 23 23 22 22 22 21 21 20 19 19 19 19 18 18 18 18 18 16 17 17 16 14 12 11 10 8 6 6
19 19 20 20 20 21 22 22 22 23 23 23 23 23 23 22 22 22 22 21 20 20 19 18 18 18 17 16 17 17 17 17 17 17 17 16 15 13 11 9 8 7 4
19 20 20 21 22 22 23 23 24 24 24 24 24 23 23 22 21 20 20 20 20 20 19 18 18 17 16 15 15 14 13 15 17 17 17 17 16 14 13 12 10 10 9
20 20 21 22 23 23 24 25 25 25 24 24 24 23 23 22 20 19 19 19 20 19 19 19 18 16 16 16 16 13 13 12 12 13 15 14 14 13 12 13 12 11 11
20 21 22 23 24 24 25 26 25 25 25 24 24 24 23 22 20 19 19 19 19 19 18 18 17 16 16 16 15 15 15 14 13 13 13 13 13 12 12 12 12 11 9
21 22 23 23 24 26 26 26 25 25 24 25 24 24 24 24 21 19 18 19 19 18 17 16 15 15 14 14 14 15 16 15 12 11 11 10 9 10 11 12 13 12 12
22 23 23 24 25 26 26 26 25 25 25 24 24 24 24 24 21 19 18 18 18 17 16 15 15 16 14 12 15 16 17 15 14 13 12 11 10 10 9 11 12 14 11
21 23 24 25 26 26 26 26 26 26 25 26 25 23 22 21 21 18 17 17 17 16 17 17 16 15 13 13 13 15 15 12 13 13 12 11 10 11 12 12 10 11 11
23 24 26 27 27 28 28 28 27 27 26 25 24 22 21 20 19 18 16 15 14 17 17 17 17 15 14 13 14 12 11 11 11 12 12 12 11 11 11 11 10 9 8
24 25 27 27 26 28 29 27 26 26 24 24 23 23 22 20 19 17 16 15 14 16 17 16 16 16 15 15 14 13 14 14 14 14 14 12 11 10 10 10 10 10 9
25 26 27 27 28 28 26 26 25 24 24 23 23 23 22 21 20 19 17 16 15 16 16 19 18 16 16 16 17 16 16 16 16 16 14 12 10 10 11 10 10 10 10
25 26 27 26 27 27 25 25 24 23 23 23 22 22 22 22 20 16 16 16 16 17 18 21 20 20 20 19 19 18 17 17 17 16 16 15 14 11 10 10 10 10 11
25 25 26 27 26 26 26 27 24 23 22 21 21 21 20 18 16 15 15 15 15 16 22 23 21 21 21 20 20 19 18 18 18 18 17 16 15 14 11 10 9 10 11
24 25 26 26 26 26 26 25 26 25 23 22 21 20 19 17 16 15 15 16 18 19 23 22 22 22 22 21 20 20 19 19 18 18 18 18 17 16 15 12 10 10 11
24 25 26 25 25 25 26 26 25 24 24 24 22 21 19 17 16 16 16 19 23 22 22 21 22 21 22 21 21 20 19 19 19 19 18 19 19 19 18 16 13 9 12
26 26 25 26 26 27 27 26 26 26 25 25 24 22 22 18 18 18 19 23 24 24 22 21 21 21 22 21 21 21 20 19 19 18 19 20 20 20 20 18 16 15 12
26 26 27 28 29 27 27 27 26 26 26 25 25 25 25 22 23 24 23 23 23 23 22 21 21 21 21 21 21 21 20 20 19 19 21 20 20 20 20 20 18 18 13
27 28 28 28 28 27 26 25 25 25 26 26 26 26 19 26 25 25 24 23 23 23 22 22 22 21 21 21 21 21 20 20 18 20 21 21 21 21 20 19 19 20 13
28 28 27 28 28 27 27 26 26 26 26 26 26 25 22 25 26 26 24 24 23 22 22 22 22 21 21 21 21 20 20 20 19 20 21 21 21 21 20 19 20 19 11
28 27 28 28 27 28 27 27 26 26 27 27 27 26 26 27 27 26 25 24 23 23 22 22 22 22 21 21 20 19 20 20 19 20 21 22 22 22 22 21 21 17 11
26 27 28 28 28 27 27 27 27 28 26 27 27 27 27 28 27 27 26 24 24 23 23 23 22 22 22 21 19 19 18 18 18 20 21 22 23 23 23 22 21 14 11
26 27 27 27 27 27 27 27 27 27 27 26 27 26 27 27 27 26 25 25 25 25 25 24 22 22 22 21 19 18 17 18 18 20 21 22 23 23 24 23 22 17 11
26 26 26 27 27 27 27 27 27 27 27 27 27 27 27 27 27 26 26 26 26 26 25 24 23 23 22 20 20 17 16 16 18 20 20 22 23 24 25 25 25 23 20

GFSGL_con_lsi_006.txt.gz
Lid_Strength_Index
16 16 17 17 18 19 19 20 20 20 21 21 21 21 21 21 21 21 21 21 21 21 20 21 21 20 20 19 18 18 18 17 19 17 16 15 15 14 13 13 12 12 12
16 17 17 18 19 19 20 20 20 21 21 21 22 22 22 22 22 22 22 22 22 22 22 22 22 21 21 20 20 20 20 19 19 20 18 17 17 16 15 15 13 11 12
16 17 18 19 19 20 20 21 21 21 22 22 22 23 23 23 23 22 23 23 23 23 22 22 22 21 21 20 20 20 19 18 19 20 20 17 17 17 16 14 14 13 12
16 17 18 19 20 20 21 21 22 22 22 23 23 23 23 23 23 23 23 23 23 23 21 21 20 20 20 20 19 19 19 19 19 19 19 19 18 15 15 16 15 14 13
17 18 19 20 20 20 21 22 22 22 23 23 23 23 23 24 23 23 23 23 22 21 20 20 19 19 18 17 18 18 18 18 18 18 19 19 17 17 17 15 16 14 13
17 18 19 20 20 21 22 22 22 23 23 23 23 24 24 23 21 20 20 21 21 21 21 20 19 19 19 17 15 14 15 17 17 17 18 17 17 16 15 15 15 15 16
18 19 20 20 22 22 22 23 23 23 23 23 23 23 24 23 21 19 19 20 21 21 21 20 19 18 18 18 16 15 14 13 13 16 17 16 16 15 14 14 14 14 14
19 19 20 21 22 22 22 23 23 23 23 23 23 23 23 23 20 20 19 20 20 20 20 19 19 18 17 16 16 17 16 15 15 14 15 15 15 14 14 14 14 14 13
20 20 20 20 21 22 23 23 23 23 23 23 23 24 24 24 22 20 19 20 20 20 18 18 17 17 16 15 16 17 16 16 13 12 12 12 11 10 11 13 14 15 15
19 20 20 20 21 22 22 23 22 22 23 23 23 23 23 24 22 20 18 20 21 20 18 17 16 17 15 14 16 17 18 17 15 15 14 13 12 12 10 12 12 14 14
19 20 21 21 22 22 23 23 23 23 23 23 23 23 23 22 22 19 18 18 19 19 19 19 18 16 14 15 14 17 17 15 14 15 14 13 13 12 11 12 12 12 14
20 21 22 22 22 22 23 24 25 24 24 24 24 23 21 20 20 19 17 17 16 19 19 18 17 15 15 15 16 15 15 14 18 17 17 16 14 13 12 11 10 10 11
22 23 24 24 25 24 25 26 25 24 24 24 23 23 22 21 20 19 18 17 17 17 18 16 16 16 17 17 17 16 17 18 18 19 19 17 15 13 11 11 10 10 10
24 24 25 25 26 25 24 24 24 24 23 23 23 23 23 22 21 21 19 20 16 17 17 20 19 18 18 18 20 18 17 18 18 19 18 17 16 15 15 13 12 10 12
24 25 25 26 25 25 23 24 22 21 22 22 23 23 23 24 22 17 17 17 17 17 21 24 23 22 22 22 21 19 18 18 18 18 19 19 18 16 16 14 14 11 12
24 25 26 26 24 24 24 23 19 20 18 19 19 21 22 20 18 16 15 15 16 16 27 26 24 23 24 23 22 20 19 19 19 18 18 18 18 18 18 17 16 16 12
23 24 25 24 24 24 25 25 24 21 18 19 20 20 19 19 17 17 15 16 17 20 31 26 25 24 24 22 20 20 20 20 18 18 18 19 17 18 19 19 18 17 16
22 23 24 24 24 23 24 24 24 25 25 25 21 21 20 19 18 17 16 21 29 25 30 26 26 25 24 21 20 20 20 20 19 19 19 18 19 20 20 20 20 20 18
23 24 23 23 23 22 22 23 24 25 26 27 26 22 24 19 18 18 19 30 33 33 29 27 26 25 23 21 20 20 20 21 19 19 18 19 20 20 21 20 20 20 20
21 22 22 23 23 23 24 26 26 27 27 27 27 27 29 28 31 33 34 35 35 34 29 27 26 25 22 21 21 20 20 21 19 18 19 19 20 20 20 21 21 22 21
22 23 23 24 24 25 26 27 26 26 26 27 29 29 23 31 34 35 36 36 36 34 29 27 26 24 22 21 21 21 21 21 19 18 19 20 20 21 20 20 21 21 21
23 25 25 26 25 25 26 26 26 26 27 28 30 30 21 31 34 37 37 37 35 34 30 29 26 24 22 22 22 21 21 21 19 18 19 20 20 21 21 21 21 21 21
24 25 26 27 26 27 27 27 27 27 28 29 29 30 32 35 36 37 37 37 35 32 30 30 27 25 22 21 21 21 20 21 18 18 19 20 21 21 21 22 22 21 20
25 26 27 27 27 26 27 27 27 27 28 30 30 32 34 36 37 36 37 37 35 33 31 29 27 26 24 23 22 20 19 19 16 18 19 21 21 21 22 22 22 22 22
26 27 27 27 26 27 28 28 28 28 29 29 31 32 34 34 35 37 37 36 33 32 30 29 27 26 25 24 23 21 19 18 15 17 19 20 21 22 22 23 23 23 23
27 26 26 26 27 27 27 27 28 28 29 30 31 32 32 33 34 36 36 34 32 31 30 28 27 28 26 23 20 19 18 14 14 17 19 20 21 22 23 23 24 24 25

GFSGL_con_lsi_009.txt.gz
Lid_Strength_Index
15 15 16 16 16 17 17 18 19 19 19 20 20 20 20 21 21 21 21 21 21 21 21 21 21 20 21 21 21 21 21 20 22 21 19 18 18 19 18 17 16 16 16
15 16 16 17 18 18 18 19 19 19 20 20 20 20 21 21 21 22 22 22 22 22 22 22 22 22 22 22 22 22 21 21 22 23 21 20 20 19 19 19 17 17 17
15 16 17 17 18 18 19 20 20 20 20 20 20 21 21 22 22 22 22 22 22 22 22 23 23 22 22 22 22 22 21 20 20 21 22 20 20 19 19 18 17 17 16
16 16 17 17 18 18 20 20 20 20 21 21 21 22 22 22 22 22 22 22 22 22 22 22 22 21 21 21 21 21 20 21 21 21 21 21 19 18 17 19 19 18 17
16 16 17 17 18 19 19 20 20 21 21 21 22 22 22 22 22 22 22 22 22 22 21 21 20 20 19 19 19 19 19 20 20 20 20 19 18 18 18 17 18 17 15
16 16 17 18 19 20 20 20 21 21 22 22 22 22 22 22 19 18 20 21 20 20 20 20 20 20 19 18 17 16 16 18 19 19 19 19 18 17 17 17 17 17 18
16 17 18 19 19 20 20 21 21 22 22 21 21 21 21 21 17 17 17 18 19 20 20 20 20 19 19 19 17 16 16 15 15 16 18 17 17 16 16 17 16 16 17
16 17 19 19 19 20 21 21 22 21 22 21 21 21 21 20 17 16 16 18 19 19 20 19 19 19 18 18 18 18 17 17 16 16 16 16 15 14 15 15 15 15 15
17 18 19 19 20 21 21 21 21 21 21 21 20 21 21 21 17 16 17 18 19 19 19 18 18 18 17 16 17 18 18 18 15 14 14 13 12 12 11 13 14 15 17
17 18 19 20 20 21 21 21 21 21 21 20 21 21 21 22 17 17 17 18 21 19 18 17 17 18 17 16 17 18 20 19 18 17 16 16 16 16 13 12 13 16 16
18 19 20 20 20 20 21 21 22 21 20 21 22 21 22 22 21 16 16 18 19 20 18 19 18 17 16 15 15 18 19 17 17 20 20 19 18 16 15 13 13 14 15
19 21 21 20 21 21 22 23 22 21 22 22 23 23 22 20 20 17 16 15 16 20 20 18 18 16 16 16 17 16 15 16 21 21 21 20 19 17 16 15 14 13 12
21 21 22 22 23 23 23 24 24 23 23 24 23 23 21 20 20 17 16 16 16 17 18 18 17 17 17 18 18 17 18 21 21 22 22 20 17 16 16 16 15 14 14
22 22 23 23 24 24 23 24 23 24 23 23 23 22 22 22 21 20 19 19 18 18 19 22 20 19 19 19 20 19 20 20 20 21 20 18 17 17 17 16 17 16 17
21 23 23 23 24 24 23 23 23 22 21 22 22 21 22 22 21 19 19 19 19 19 26 27 25 22 22 22 21 21 20 20 21 19 18 19 18 18 18 17 17 17 19
21 22 23 23 24 24 24 23 20 20 18 18 18 20 20 18 16 15 16 17 18 18 28 30 25 23 23 23 23 22 22 21 20 19 18 18 18 18 18 18 18 18 19
21 23 23 24 24 24 24 23 23 19 17 17 17 17 17 16 16 16 17 19 18 23 32 30 26 25 24 23 23 23 23 22 19 18 19 19 18 18 19 19 19 19 20
21 23 23 23 23 24 22 21 21 21 21 20 17 17 16 16 15 16 18 22 27 28 35 33 32 27 26 25 24 24 23 21 19 19 19 19 18 19 20 20 20 20 20
21 22 23 23 22 23 22 21 20 20 21 22 21 18 18 15 16 17 21 27 31 32 34 35 33 29 27 26 25 24 23 21 20 20 19 19 18 19 20 20 20 20 20
21 22 22 22 22 22 22 22 22 22 23 23 23 24 25 24 27 28 29 31 33 34 33 35 32 31 28 27 26 24 22 21 21 19 19 18 18 19 20 20 20 21 21
20 21 21 21 20 20 21 21 22 23 23 23 23 25 23 25 28 29 32 34 34 35 36 35 33 33 29 27 26 24 22 21 20 19 20 18 19 20 20 20 20 20 21
19 19 20 21 22 22 22 22 23 23 24 25 26 23 18 27 29 31 34 33 34 37 37 35 35 34 30 28 26 24 23 22 20 19 19 18 19 20 20 21 21 21 21
20 21 22 23 23 24 24 24 25 25 25 25 25 26 27 29 32 35 34 34 36 39 38 37 37 34 31 28 26 24 23 22 20 19 18 18 20 20 21 22 22 22 22
22 23 24 25 24 25 25 26 26 25 26 26 26 28 28 31 32 33 34 36 39 39 38 36 36 36 32 29 27 24 23 20 19 17 17 18 20 20 21 22 22 22 22
24 25 25 26 26 26 27 26 26 26 26 26 28 28 30 30 32 35 34 38 38 38 36 35 36 35 32 30 29 26 23 20 17 14 16 18 20 21 21 22 22 23 23
25 26 26 26 27 27 26 26 26 26 26 27 28 29 29 30 31 32 35 37 35 35 35 35 35 34 32 29 27 23 20 16 14 14 16 18 20 21 22 23 23 23 23

GFSGL_con_lsi_012.txt.gz
Lid_Strength_Index
15 15 15 16 16 16 17 17 18 18 18 19 19 19 20 20 20 20 21 21 21 21 20 20 20 20 21 21 20 20 21 20 24 21 20 20 20 20 19 18 18 18 18
14 15 16 16 16 17 17 17 18 18 19 19 19 19 20 20 20 21 21 21 21 21 21 21 21 21 21 21 21 21 21 21 22 24 21 21 20 19 19 19 18 17 18
15 16 16 17 17 16 17 18 18 18 19 19 19 20 20 21 21 21 21 21 21 21 21 22 22 21 22 21 21 21 21 21 21 22 22 20 20 19 19 18 18 18 17
15 16 16 16 16 16 16 18 18 18 19 19 19 20 20 21 21 21 21 22 22 22 21 21 21 21 21 21 21 20 20 21 21 21 21 21 20 18 18 19 19 17 17
15 16 16 15 16 16 17 18 18 18 19 19 20 21 21 21 21 22 22 22 22 21 20 20 20 19 18 18 19 20 20 20 20 21 21 20 19 19 19 17 18 18 17
15 16 15 16 17 17 18 18 19 19 19 20 21 21 22 21 18 18 19 20 20 20 20 19 19 19 18 17 16 16 16 18 19 19 19 20 19 18 17 17 18 19 20
15 15 16 17 18 18 19 19 19 20 20 21 21 21 21 21 16 15 16 19 19 18 18 18 18 18 18 18 17 16 16 15 15 17 18 18 18 17 17 18 18 18 18
15 16 17 18 18 19 19 20 20 20 21 21 21 20 20 20 15 14 14 17 17 18 18 18 18 17 17 17 17 18 17 17 16 16 17 17 16 16 16 15 16 15 16
16 16 17 18 18 20 20 19 19 20 21 21 20 20 20 20 15 13 14 18 18 19 18 18 17 17 16 15 16 18 18 16 15 14 14 14 13 13 14 17 19 20 21
16 16 17 17 17 18 18 19 19 20 20 21 21 20 20 21 15 14 15 18 20 19 18 18 16 17 15 15 16 17 19 18 18 18 16 17 17 18 16 17 18 21 21
19 19 19 18 17 18 18 19 20 20 21 21 22 21 21 20 18 15 15 19 20 20 19 19 17 16 16 14 14 16 18 16 16 19 20 20 19 19 18 17 17 18 20
18 19 20 19 19 19 20 20 21 21 22 22 22 23 22 22 20 16 16 16 17 21 19 19 18 17 15 15 15 16 16 16 21 22 22 21 20 20 18 17 17 16 15
19 19 19 20 21 20 21 22 21 22 22 23 22 23 23 22 21 17 15 15 15 19 19 18 17 17 16 17 18 17 18 21 22 23 22 21 19 18 18 18 17 15 15
18 19 20 20 21 21 21 21 21 22 22 22 22 23 23 22 22 19 17 17 16 17 18 21 21 19 19 19 20 20 20 20 21 21 21 20 19 19 19 18 17 16 17
19 20 20 20 21 21 21 21 21 20 20 21 21 21 22 22 21 18 19 20 20 19 25 26 25 23 23 22 22 21 20 20 21 20 20 21 20 20 19 17 16 16 19
18 20 21 21 21 21 22 22 18 18 18 17 17 18 19 18 17 16 16 16 15 17 29 28 25 24 24 23 23 22 20 21 20 20 21 21 21 20 19 17 16 18 19
17 17 18 20 22 22 23 23 23 19 17 16 16 17 18 17 15 15 14 15 15 20 32 28 27 25 25 23 23 22 23 22 20 21 21 21 21 19 18 18 18 18 20
18 18 19 19 20 20 22 23 22 22 21 20 17 17 16 15 15 14 15 16 21 26 32 31 31 28 26 24 24 24 24 23 23 22 22 22 20 18 18 18 18 20 20
18 18 19 20 20 20 21 20 21 21 20 20 19 18 17 15 15 14 16 25 27 30 32 32 30 29 27 27 27 26 26 25 24 24 23 21 19 19 18 18 18 19 20
15 15 18 19 20 20 20 20 20 20 20 19 19 19 18 17 21 24 27 28 30 31 29 31 31 31 31 31 30 29 27 26 25 23 22 20 19 18 17 19 19 20 21
15 17 18 18 19 19 19 19 19 19 20 19 20 20 19 20 24 26 28 28 31 29 30 31 32 32 33 34 34 32 28 27 25 23 22 20 19 18 18 18 19 20 21
16 17 17 18 18 18 18 18 19 19 19 23 22 18 16 23 25 27 27 29 30 30 32 33 33 33 32 34 34 31 29 28 26 23 22 20 18 17 18 19 20 20 21
18 19 19 18 18 18 19 19 21 21 23 23 21 19 25 26 27 28 29 30 30 31 33 35 35 33 34 34 34 30 30 28 26 23 23 20 17 18 19 21 21 21 22
19 20 20 21 21 21 21 22 23 23 23 23 24 25 27 27 28 29 29 30 31 34 36 35 35 34 33 33 32 30 29 27 25 22 21 18 17 18 20 21 21 21 22
22 22 22 22 23 23 24 24 25 24 24 25 27 27 27 28 28 28 29 30 31 34 34 35 37 36 34 34 32 31 29 25 24 20 17 17 17 19 20 21 21 21 22
24 24 24 24 25 25 25 26 26 26 26 27 26 27 27 27 27 28 29 31 31 32 34 35 35 34 34 32 31 27 24 20 19 15 15 15 17 19 20 21 21 22 22

GFSGL_con_lsi_015.txt.gz
Lid_Strength_Index
14 14 15 15 15 16 17 17 16 17 17 18 18 18 19 19 19 20 20 20 21 21 20 20 20 20 21 21 20 20 21 21 23 21 20 19 20 20 19 19 18 19 18
13 14 15 15 16 16 16 17 16 17 17 17 18 18 18 19 19 20 21 21 21 21 21 21 21 20 22 21 21 22 21 21 22 23 21 20 20 20 19 19 18 18 18
15 15 15 15 16 16 16 16 17 17 18 18 18 19 19 19 19 19 20 21 21 21 21 21 22 22 22 22 22 22 21 20 20 21 21 19 19 19 19 18 18 18 17
15 15 15 16 16 16 16 16 17 17 18 18 18 18 19 19 20 20 20 21 21 21 21 21 21 21 21 22 21 20 20 20 20 21 21 20 19 17 17 18 18 17 17
14 14 15 15 15 16 16 17 17 17 17 18 19 19 19 20 20 21 21 21 21 22 22 21 21 21 19 18 20 20 20 21 20 20 20 19 18 18 18 17 18 18 18
15 15 15 16 17 16 17 17 18 18 18 18 19 19 20 20 17 17 19 21 21 21 22 21 21 20 18 16 15 15 17 21 21 20 19 18 18 17 17 18 18 19 20
14 14 15 16 16 17 17 18 18 18 18 19 19 20 20 19 16 15 17 20 21 21 21 20 19 18 18 18 16 15 15 14 14 16 19 18 18 17 17 18 17 17 18
14 15 17 17 16 17 18 18 18 18 19 19 20 19 19 20 15 15 17 20 20 20 20 19 19 19 18 18 19 18 18 17 17 16 17 16 16 15 15 15 16 18 18
15 16 18 18 17 19 18 19 18 18 19 19 19 19 19 19 15 15 17 20 20 19 18 18 18 18 17 16 18 19 18 17 15 13 13 13 13 13 13 17 20 21 22
15 15 17 18 17 18 18 19 18 18 18 18 19 19 19 20 15 15 16 20 20 20 19 19 17 18 16 16 17 20 20 18 17 19 17 16 16 17 16 17 19 22 22
17 18 19 20 19 19 19 19 18 18 19 19 20 20 19 20 16 14 14 18 19 20 20 19 18 16 16 15 15 17 18 16 18 18 20 20 19 19 18 18 18 19 21
18 19 20 20 19 20 19 20 21 20 20 21 20 21 21 20 17 14 14 16 17 20 19 19 18 16 16 15 15 16 15 16 23 23 22 22 20 20 18 18 17 17 17
15 17 18 18 18 20 19 19 21 21 20 21 21 22 22 21 18 14 13 15 16 19 18 18 17 16 16 17 17 18 18 21 23 25 23 21 19 18 17 18 17 17 17
15 15 17 18 19 19 19 19 19 21 21 21 21 22 22 22 21 17 16 15 16 17 17 17 17 18 19 20 20 20 21 21 21 22 21 20 18 19 19 18 19 19 19
18 16 17 18 18 19 19 19 19 19 18 20 20 20 22 23 21 18 16 16 16 18 21 22 23 23 23 23 23 23 22 22 22 21 21 20 20 19 19 19 19 19 21
21 18 15 18 18 19 20 20 16 16 16 15 16 18 19 18 17 16 15 14 15 16 23 24 24 23 23 24 24 24 23 23 22 21 21 21 21 20 20 20 19 20 21
22 20 16 17 18 20 20 20 21 18 16 15 15 16 16 17 16 16 15 15 14 17 24 24 24 25 25 24 24 24 24 23 22 22 21 21 21 21 21 21 21 20 20
21 20 18 15 17 19 19 20 21 20 20 20 15 15 14 15 15 15 14 15 17 22 25 25 26 26 25 25 25 25 24 24 23 23 23 23 23 23 22 22 21 21 20
20 20 19 16 16 18 19 20 21 20 20 20 18 15 16 14 13 13 14 18 25 26 26 28 27 27 27 27 27 27 27 27 26 26 26 25 23 23 22 21 21 20 19
20 19 18 17 18 18 19 21 21 21 20 20 19 18 17 15 15 15 20 22 24 26 27 27 28 29 29 30 30 30 30 30 28 28 26 24 24 22 22 21 20 20 20
20 18 17 15 17 18 18 19 19 19 19 18 17 16 14 14 16 23 24 23 24 26 27 27 29 30 31 32 33 33 34 29 28 29 26 25 24 23 21 21 19 19 19
17 16 15 16 17 17 17 17 17 16 16 17 17 14 11 20 22 23 24 25 26 26 27 28 30 31 31 32 32 34 34 32 30 30 27 24 24 23 21 19 19 20 20
17 17 17 18 18 17 17 17 17 16 18 18 17 18 21 22 23 25 26 27 28 29 31 34 32 32 32 33 33 33 33 31 30 31 27 26 24 22 20 19 20 21 21
20 19 19 19 19 19 19 19 19 20 20 18 21 22 23 24 25 26 28 28 29 30 32 32 32 31 33 33 33 33 32 31 30 29 27 26 24 21 19 20 21 21 21
22 21 21 21 21 21 21 21 21 21 21 23 24 25 26 26 27 28 28 29 30 30 30 30 30 33 32 31 32 32 32 28 28 27 25 22 19 19 20 21 21 21 21
23 23 23 23 23 23 23 23 23 23 24 25 25 26 27 27 28 28 29 28 28 28 28 28 30 30 30 31 31 29 27 23 22 20 17 16 20 19 20 22 22 21 21

GFSGL_con_lsi_021.txt.gz
Lid_Strength_Index
13 13 14 14 14 14 15 15 14 14 14 15 15 15 15 16 16 16 16 16 17 16 17 17 17 17 17 17 17 17 18 18 17 19 18 18 18 18 18 17 17 17 16
13 13 14 14 15 15 15 15 14 14 14 14 15 15 15 16 16 16 16 17 17 17 17 18 18 18 18 18 18 18 18 18 18 18 19 19 19 19 18 18 18 17 16
14 14 14 14 15 15 15 14 14 14 14 14 15 15 15 16 16 16 15 16 17 17 17 18 18 18 19 19 19 19 18 18 19 20 20 20 19 18 18 18 17 16 16
14 14 14 14 14 14 14 14 14 14 14 15 15 15 15 16 16 17 16 16 17 17 17 17 18 18 18 19 19 19 19 19 20 20 20 21 20 19 18 18 18 16 16
13 14 14 14 14 14 15 14 14 15 14 14 15 15 15 16 16 17 17 16 17 17 17 17 17 18 17 18 19 19 20 20 20 21 21 21 20 20 19 18 18 17 16
13 13 13 13 15 15 15 14 15 15 16 15 15 15 15 16 14 14 15 16 17 17 18 18 18 18 17 16 16 17 18 21 21 21 21 21 20 19 18 18 19 19 18
13 13 13 13 14 14 15 15 16 15 14 15 15 15 15 15 14 13 14 16 17 17 18 19 19 19 18 17 16 16 17 17 18 20 20 19 19 18 18 19 18 18 18
14 14 14 16 15 15 15 15 15 14 15 15 15 15 15 15 14 13 14 16 17 17 17 18 18 19 19 18 17 18 18 18 18 18 18 18 17 18 18 17 17 18 18
15 15 15 16 15 15 15 15 15 15 15 15 14 15 15 16 14 13 13 15 17 17 17 18 18 19 17 16 17 18 18 18 16 15 16 16 16 16 16 17 20 21 21
15 15 15 16 15 17 17 16 15 15 15 15 16 15 15 15 13 12 12 13 17 17 18 18 17 18 16 15 17 17 18 18 18 17 17 16 15 17 16 17 19 22 22
15 15 16 16 16 16 16 15 15 16 16 16 16 16 16 15 14 13 12 13 16 17 18 19 19 17 16 14 15 17 18 17 18 18 18 18 19 19 20 19 19 19 21
16 16 17 18 17 17 18 17 15 15 16 16 16 16 16 16 15 13 12 11 14 17 19 18 18 16 15 14 16 16 16 17 18 19 20 20 21 21 20 20 19 19 19
18 19 19 19 19 18 18 17 16 14 15 15 16 17 17 18 16 14 13 12 13 17 17 17 16 15 14 14 14 16 16 18 20 21 21 21 21 20 20 20 20 20 20
19 19 20 20 20 19 18 17 16 14 14 15 15 16 16 17 17 16 15 14 13 15 16 16 16 15 14 15 15 15 17 20 20 20 21 21 21 21 21 21 21 21 21
20 20 20 20 21 21 19 18 17 15 13 14 14 14 15 17 17 15 16 15 15 16 17 17 17 16 17 17 16 19 20 21 21 22 22 23 22 22 22 21 22 22 23
22 22 21 21 21 21 21 20 16 14 12 10 10 11 14 14 13 14 14 14 12 14 18 18 18 17 18 19 21 22 22 22 22 22 23 23 22 22 22 22 22 23 23
24 23 23 22 22 22 21 21 21 17 14 11 10 10 11 12 13 13 12 12 11 14 18 18 18 18 20 20 21 22 23 23 22 23 23 23 23 23 23 23 23 23 23
25 24 24 23 23 23 22 21 20 20 18 15 12 12 11 11 11 12 12 12 13 15 18 18 19 19 21 21 22 22 22 23 23 23 23 23 24 24 24 24 23 24 23
24 24 23 23 23 22 21 21 21 20 19 16 14 13 13 11 11 12 12 14 14 16 18 19 19 19 20 20 21 22 22 23 23 23 24 25 26 26 26 25 24 24 23
23 23 22 22 22 22 22 22 21 20 18 16 15 14 13 13 13 14 13 14 14 17 19 19 20 20 21 22 23 23 24 25 26 26 26 26 26 25 24 25 24 23 23
23 22 22 22 22 22 21 21 20 18 17 15 15 13 12 13 13 14 14 14 19 19 21 21 22 23 24 24 25 25 26 26 26 26 26 26 26 26 25 23 23 23 23
22 22 21 20 19 19 19 19 18 16 15 15 14 14 11 11 13 14 18 19 19 20 21 23 24 25 25 25 25 26 26 26 26 25 25 25 26 25 25 24 24 23 22
21 21 20 19 18 17 16 16 16 15 15 14 14 16 17 19 20 21 22 22 22 22 22 24 25 26 26 26 25 24 25 25 25 26 26 26 26 26 26 25 24 23 22
22 22 21 21 20 19 19 19 18 18 19 19 20 20 21 21 22 23 23 24 24 23 23 23 24 26 27 27 27 26 26 27 27 27 27 27 27 26 25 25 23 22 20
23 23 23 23 22 21 21 22 22 22 22 22 22 23 23 23 24 24 24 24 24 24 25 25 25 26 26 27 28 29 29 26 29 29 29 28 27 26 26 24 22 20 20
24 25 25 24 24 24 24 23 24 23 23 23 23 23 24 24 24 24 24 24 25 25 26 26 26 27 27 27 28 28 27 25 26 25 27 27 25 25 24 21 20 20 21

GFSGL_con_lsi_024.txt.gz
Lid_Strength_Index
12 12 12 11 11 12 12 12 11 11 11 11 11 12 12 12 12 13 13 13 13 13 13 13 13 13 13 13 13 13 14 13 13 16 15 15 15 16 17 16 16 16 15
12 12 12 11 11 12 12 12 12 12 11 12 12 12 12 12 12 12 13 13 13 13 13 14 14 15 14 14 14 14 14 15 14 17 17 17 17 16 16 17 17 17 16
13 13 12 12 12 12 12 12 12 12 12 12 13 13 13 12 12 12 12 12 13 13 13 14 14 15 15 15 15 15 15 16 15 15 18 18 18 17 17 17 17 16 16
13 13 13 13 13 12 12 12 13 13 13 13 13 13 13 12 12 13 13 13 13 14 13 14 15 15 15 15 15 15 15 15 15 16 16 18 18 18 17 17 18 16 16
13 13 12 12 12 13 13 12 13 13 14 14 14 14 13 13 13 13 14 14 13 14 14 14 15 15 15 14 15 15 15 15 16 16 17 18 19 19 19 17 17 16 16
13 13 13 13 14 15 13 13 13 13 14 14 15 15 15 14 13 12 13 14 14 14 15 15 15 15 15 13 13 13 14 16 16 17 17 18 18 18 17 17 17 18 17
13 13 13 13 15 16 14 14 14 13 12 13 13 14 14 14 13 12 12 14 15 15 15 15 15 16 16 15 13 13 14 13 14 15 17 17 17 17 17 18 18 18 17
13 13 13 14 15 16 15 16 15 14 14 13 12 13 13 13 12 12 12 13 14 14 14 14 15 15 16 16 15 15 15 15 15 16 15 16 16 16 16 17 17 17 16
12 12 13 13 15 15 16 16 15 15 14 13 12 12 13 13 12 12 12 13 13 14 14 14 14 15 15 14 16 16 16 16 15 15 15 15 15 15 16 16 18 19 19
11 12 12 13 14 15 15 16 15 14 14 13 13 12 13 13 13 12 12 13 13 13 14 14 14 15 14 14 15 16 17 17 17 17 17 16 15 15 15 16 16 19 20
11 12 12 13 14 14 15 14 15 15 14 14 13 12 12 12 12 12 12 12 13 13 14 15 15 14 13 14 13 15 15 16 16 17 17 16 16 16 16 16 17 18 20
12 13 14 15 15 15 16 16 16 15 15 15 13 12 11 11 11 11 12 12 11 13 13 14 14 14 13 14 13 14 14 15 16 16 17 18 18 19 18 18 19 18 18
15 16 16 16 16 17 17 17 17 16 16 15 14 12 12 11 10 11 11 11 12 12 12 13 13 14 13 13 13 13 14 16 17 18 18 18 18 19 19 19 19 19 19
18 18 17 18 18 18 17 17 17 17 16 15 14 13 12 11 11 11 12 12 12 13 12 13 14 14 13 14 14 13 15 17 17 18 18 19 19 20 20 20 21 21 21
20 20 20 19 19 19 19 18 18 17 16 16 15 14 14 13 11 10 11 12 12 11 13 14 14 15 16 15 15 15 16 18 18 18 19 21 21 21 21 21 21 21 22
22 22 22 22 21 21 21 21 17 16 15 14 13 13 13 11 10 9 10 10 10 10 13 15 15 15 16 15 15 16 17 18 19 19 20 21 21 22 21 21 21 22 23
24 24 23 23 23 23 22 22 23 20 16 15 14 13 12 11 9 8 9 9 9 9 13 14 15 15 15 15 15 18 18 19 20 20 21 21 21 22 22 22 22 22 23
24 24 24 23 23 22 22 22 22 22 22 20 16 15 13 10 9 8 8 9 11 10 12 14 15 15 15 15 18 19 20 21 21 21 21 22 22 22 23 23 22 22 23
23 23 23 22 22 22 22 22 21 21 21 20 19 16 14 12 10 9 9 10 11 11 12 14 14 14 16 17 18 19 20 21 21 22 22 23 22 22 22 22 22 23 22
22 22 21 21 21 21 21 21 21 20 20 20 19 17 15 12 12 11 9 9 10 11 12 14 15 17 16 17 17 19 20 21 22 22 23 23 23 22 23 23 22 22 22
22 21 20 20 20 20 20 19 19 19 19 19 17 15 11 12 12 11 9 9 10 11 14 16 17 17 17 18 20 21 21 22 23 23 23 23 23 24 22 22 21 22 22
21 21 21 21 20 19 18 18 17 18 18 17 15 12 11 11 11 10 13 14 14 14 15 17 18 19 20 20 21 21 23 23 23 23 23 24 24 23 23 22 22 21 21
22 22 21 21 20 19 18 17 17 16 15 14 15 15 15 15 16 16 17 17 17 17 18 19 19 21 21 21 20 20 22 22 22 22 23 23 23 23 22 22 21 22 21
22 23 22 22 21 21 20 20 20 20 20 20 19 19 20 20 20 20 20 19 19 19 19 19 20 21 21 21 21 20 21 22 22 22 21 22 23 23 22 22 22 21 21
22 22 23 23 23 23 22 22 22 21 21 21 21 21 21 21 22 22 21 21 21 21 21 20 20 21 22 22 22 23 21 23 23 23 24 23 23 23 23 23 22 21 20
23 23 23 23 23 23 24 23 23 23 23 22 22 22 22 22 22 22 22 22 22 22 22 22 22 22 23 23 23 24 23 23 25 25 25 24 24 23 23 22 22 21 19

GFSGL_con_lsi_027.txt.gz
Lid_Strength_Index
12 12 11 11 12 11 12 12 11 11 11 11 11 10 11 11 11 11 11 12 12 12 12 13 13 12 12 12 12 12 12 12 11 16 14 13 14 15 16 16 16 16 16
12 11 11 11 12 12 13 12 12 12 12 12 12 12 12 12 11 12 12 12 12 13 13 13 13 13 13 13 12 13 13 13 13 16 15 15 15 15 16 18 18 18 17
12 12 12 11 11 11 13 13 13 13 13 12 12 12 12 12 12 12 12 12 12 13 13 14 14 13 13 13 13 13 13 16 14 15 17 17 16 15 16 17 17 18 18
13 12 12 12 11 12 12 11 12 13 14 13 12 12 12 12 12 12 13 13 13 13 13 13 13 13 13 14 14 14 14 15 15 15 17 18 18 17 17 18 19 17 17
12 12 12 12 12 12 12 13 12 12 12 13 13 12 12 12 12 13 13 13 14 13 13 13 13 13 13 13 14 14 14 14 15 15 16 18 19 19 19 17 17 17 17
11 12 11 11 12 12 13 13 13 14 13 12 12 12 13 13 12 11 12 13 14 14 14 14 14 14 14 12 12 12 13 14 15 15 15 17 18 18 18 17 17 17 19
11 11 11 12 12 12 13 13 13 14 14 14 13 12 12 13 11 11 10 13 14 13 14 14 14 14 14 14 12 12 12 11 12 14 15 15 17 17 17 17 17 17 16
11 11 11 12 12 12 13 14 14 14 14 14 13 13 12 12 11 11 10 11 12 13 13 14 14 14 14 15 15 14 14 14 13 13 14 14 15 16 16 16 16 16 16
11 11 11 11 12 13 14 14 14 14 14 14 14 14 13 12 11 11 12 12 12 12 11 12 13 14 13 12 15 15 15 15 13 12 12 12 13 13 14 16 17 18 19
11 11 11 11 12 13 13 13 13 14 14 14 14 14 14 13 11 11 11 12 13 12 11 11 12 12 12 12 14 15 15 15 15 15 14 14 14 14 13 15 16 18 19
11 11 12 12 12 13 13 14 14 15 15 16 15 15 14 13 13 10 9 11 12 13 12 11 11 10 11 12 12 15 15 14 14 15 16 16 16 16 16 16 16 16 18
14 15 15 15 15 15 16 16 16 17 17 17 17 16 14 13 11 10 9 8 9 11 12 11 10 9 11 11 12 13 13 13 15 16 17 17 17 17 16 16 16 17 17
18 19 19 19 18 18 18 18 18 18 18 19 18 17 16 14 12 10 9 8 8 9 10 10 9 9 10 12 12 12 14 15 16 17 18 17 16 16 16 17 18 18 18
22 21 21 21 21 20 20 19 19 20 19 19 19 18 17 16 14 12 10 10 10 10 9 9 9 9 10 12 13 13 14 14 15 17 16 16 16 17 19 19 20 20 21
22 22 22 22 22 22 22 21 21 20 19 20 20 19 19 18 16 12 12 11 10 10 11 10 10 10 12 13 14 14 14 13 15 15 15 16 18 19 19 19 20 21 22
24 24 23 23 23 23 23 22 19 18 17 16 15 16 16 14 13 12 11 10 10 9 10 12 12 11 12 13 13 14 14 14 15 15 16 18 19 19 20 20 21 22 22
25 24 24 24 23 23 23 23 24 21 18 17 16 16 15 14 13 12 11 10 9 8 10 11 12 12 12 12 12 13 14 15 16 17 18 19 20 20 21 21 22 22 22
24 24 23 23 22 22 21 21 22 23 23 22 18 17 16 15 14 13 12 10 11 10 9 10 11 11 11 12 12 12 14 15 16 17 19 19 20 21 21 22 22 23 23
24 23 23 22 21 20 20 20 20 21 21 21 20 18 17 15 14 13 11 13 11 10 9 10 10 11 11 11 12 13 14 16 17 18 19 19 20 21 21 21 22 22 23
23 22 22 22 21 20 20 20 20 20 20 20 19 19 18 17 17 15 12 11 11 10 9 9 10 10 10 13 14 15 16 17 18 19 20 20 20 21 22 23 23 24 24
22 22 22 21 21 21 20 20 19 18 18 18 18 17 13 14 14 12 11 11 10 8 8 10 11 11 12 13 16 16 17 18 19 20 21 21 21 22 22 22 23 23 23
21 22 22 22 21 21 20 19 19 19 18 16 16 15 12 13 13 13 12 12 10 10 11 11 12 12 13 15 16 18 19 20 21 21 21 22 22 22 22 22 22 22 23
22 22 22 21 21 21 21 21 20 20 20 19 19 19 18 18 18 18 17 16 16 16 15 15 16 16 16 16 17 18 20 20 21 21 22 22 22 22 22 23 22 22 23
22 23 23 22 22 22 21 22 22 21 21 21 21 21 20 20 20 19 19 18 18 18 18 18 17 18 18 18 18 18 19 19 20 20 21 21 22 22 22 22 22 22 22
23 23 23 23 23 23 22 22 22 22 22 22 22 22 21 21 21 21 20 20 20 19 19 19 19 20 20 20 21 20 19 20 20 20 20 21 22 22 22 22 22 22 22
23 23 23 23 23 23 23 22 22 22 23 22 22 22 22 22 22 21 21 21 21 21 21 21 21 21 21 22 22 21 20 20 22 22 21 22 23 23 23 23 23 23 23

GFSGL_con_lsi_030.txt.gz
Lid_Strength_Index
14 14 14 15 15 15 15 14 15 14 14 14 13 13 13 13 13 13 14 14 14 14 15 15 14 15 14 15 15 15 15 16 16 18 17 16 15 15 15 16 16 17 16
14 14 15 15 15 16 15 14 15 15 15 14 14 14 13 13 14 14 14 14 15 15 15 15 15 14 15 15 15 14 14 15 16 19 19 18 17 15 16 17 18 17 18
14 15 15 15 16 16 16 15 15 15 15 15 14 14 13 13 14 14 14 14 14 14 14 15 14 15 15 14 15 14 14 15 15 18 19 18 18 16 18 18 18 19 18
14 14 15 15 15 15 16 16 16 15 16 15 15 14 14 13 12 13 14 14 14 14 14 14 14 14 14 14 15 14 14 15 14 16 19 18 18 16 17 18 19 18 18
15 14 14 14 14 14 15 15 15 14 15 15 15 14 14 13 12 13 12 13 14 14 14 13 13 13 12 12 13 13 14 14 15 14 16 20 18 18 18 18 18 18 18
15 14 13 13 13 13 14 14 14 14 14 15 15 14 14 13 11 10 10 12 12 12 13 14 14 13 13 11 10 10 12 14 14 15 14 17 17 17 17 18 18 19 20
12 12 12 12 13 13 13 13 14 15 15 15 14 14 14 13 11 10 10 11 12 12 12 11 11 12 13 13 12 10 10 10 11 13 14 14 16 17 17 17 18 17 17
12 13 13 13 13 12 13 13 14 14 15 15 15 15 15 14 11 11 10 11 12 12 12 12 12 11 11 12 13 14 13 13 12 12 13 13 13 15 16 16 16 16 18
11 12 12 13 13 13 13 13 12 13 14 14 15 15 15 15 12 11 11 12 12 12 12 11 11 12 10 9 12 13 14 14 12 11 10 11 11 12 14 15 17 18 22
12 12 13 13 14 14 14 14 13 13 14 14 14 14 15 16 13 12 12 13 13 12 12 11 11 11 9 9 10 12 13 14 14 14 13 12 11 12 13 14 15 17 17
15 15 16 16 18 18 18 17 17 17 16 17 17 17 17 16 16 13 12 13 13 12 12 12 11 9 8 8 8 10 12 12 12 13 14 13 13 14 14 14 14 15 16
17 18 20 21 21 20 21 21 20 20 20 20 20 19 18 17 15 14 13 12 11 12 12 11 10 8 8 8 8 8 8 9 13 13 14 15 14 15 15 14 15 14 15
20 22 22 22 22 21 22 22 23 22 22 22 21 21 20 18 17 15 13 13 12 12 11 9 8 8 8 8 7 7 8 9 11 14 14 15 14 14 15 16 16 17 18
23 22 22 22 23 23 22 22 23 24 24 23 23 23 22 21 20 18 17 16 15 13 11 10 9 9 9 9 9 8 8 9 11 12 14 13 14 15 16 16 18 18 19
22 22 23 23 24 24 23 23 22 21 21 22 21 20 21 21 19 16 16 16 16 14 13 12 12 12 12 11 10 9 9 9 10 11 12 14 15 16 16 16 18 18 20
23 23 23 24 24 23 23 23 19 17 15 15 14 15 17 15 14 14 14 13 13 12 14 14 14 13 13 12 11 11 10 10 10 10 12 13 14 16 18 19 19 20 20
23 23 24 24 24 24 24 24 24 20 16 15 15 14 14 14 13 14 13 13 13 12 15 14 14 13 11 11 11 11 11 10 9 10 11 12 15 16 19 19 20 20 21
21 22 24 24 24 24 24 23 22 22 23 21 17 16 14 13 12 12 12 13 16 15 15 15 14 12 10 10 11 11 10 10 10 11 12 14 15 16 18 19 19 20 21
22 22 23 23 23 23 22 22 22 21 21 21 20 17 16 14 13 12 12 15 16 16 16 15 13 11 10 9 10 9 9 11 12 13 13 14 15 16 17 18 19 20 20
22 21 21 22 22 22 22 22 22 21 21 20 19 18 16 17 17 17 16 15 14 14 14 13 10 9 9 9 9 8 10 12 13 13 14 14 15 16 18 18 19 20 21
22 23 23 23 23 22 22 21 22 21 21 21 20 19 14 17 18 17 16 16 15 14 12 11 9 8 9 10 9 10 11 12 13 14 15 15 16 17 18 18 19 20 21
23 23 23 24 23 23 22 22 22 21 22 22 22 20 16 20 19 19 18 17 17 16 15 12 12 12 13 12 11 12 13 14 15 15 16 16 17 18 19 20 20 21 21
23 24 24 24 24 23 23 22 22 22 22 22 22 22 21 21 21 20 20 18 18 17 16 16 15 15 14 14 13 14 15 16 16 16 17 18 19 19 19 20 21 21 22
25 25 24 24 24 24 24 23 23 22 22 22 22 22 22 22 22 21 20 20 19 19 18 18 17 17 16 16 16 16 16 16 16 17 17 18 19 19 20 21 21 21 21
27 26 26 25 25 25 24 24 23 23 22 22 22 22 22 22 22 21 21 21 21 20 20 20 19 19 19 18 18 17 16 17 17 17 18 19 20 20 20 20 21 21 21
28 28 28 26 26 25 24 24 24 23 23 22 22 22 22 22 22 22 22 21 21 21 21 21 21 20 19 19 18 18 18 17 19 19 19 20 20 21 20 21 21 21 21

GFSGL_con_lsi_033.txt.gz
Lid_Strength_Index
14 15 14 14 15 15 15 15 16 15 15 16 15 15 16 16 15 14 15 15 16 15 15 15 15 14 13 13 15 14 14 16 14 14 17 17 16 15 15 14 15 15 14
12 13 13 13 14 14 15 15 15 15 15 16 16 16 16 16 16 15 15 15 15 16 15 15 15 14 15 14 13 14 14 14 14 14 18 19 17 15 15 16 16 16 16
13 13 14 14 14 15 14 15 15 15 16 16 15 16 16 16 16 16 15 15 15 15 15 14 13 14 15 14 15 15 14 14 15 14 15 19 18 17 18 17 17 17 17
12 13 15 15 15 15 15 15 15 16 16 15 15 15 15 16 16 16 15 16 16 15 14 14 13 13 12 13 14 14 14 14 15 15 14 19 19 18 16 17 19 18 18
13 13 13 14 13 13 14 15 15 15 16 16 16 16 15 15 15 15 15 15 15 15 14 14 14 13 12 11 12 13 14 14 14 15 15 19 19 19 17 17 17 17 17
13 12 12 12 12 11 12 12 12 13 14 14 15 16 16 16 13 12 12 14 14 14 14 13 12 12 12 10 9 9 10 12 14 14 14 15 16 16 16 16 17 18 20
12 12 11 11 12 11 11 12 12 13 13 13 14 14 15 15 13 12 11 13 14 14 13 13 13 12 12 12 11 9 9 8 9 11 14 13 13 14 15 16 16 16 16
12 13 12 12 13 12 12 13 13 13 13 14 14 14 15 15 12 12 12 13 14 14 14 13 13 13 12 12 12 12 11 11 10 10 11 11 11 13 14 14 15 15 16
12 12 13 14 15 15 16 16 15 16 16 15 14 15 15 15 12 12 12 14 15 15 14 14 14 13 11 10 11 12 12 11 9 9 9 9 9 9 12 14 15 16 17
14 14 15 16 18 19 19 19 19 19 18 18 18 17 17 18 14 13 13 15 16 16 15 14 13 13 11 10 11 12 13 12 11 11 11 9 9 10 9 13 14 16 16
16 16 17 18 20 20 21 21 21 21 21 22 21 20 20 19 19 15 14 16 16 16 16 15 14 11 10 9 8 10 11 11 10 10 11 11 10 10 11 11 13 14 15
17 19 20 21 21 21 22 22 22 23 23 23 23 22 20 19 17 16 15 14 14 16 17 15 15 12 11 10 9 8 7 7 9 10 11 11 11 11 10 10 11 12 13
23 23 22 22 21 21 23 23 23 23 24 23 23 23 22 20 20 17 16 16 15 17 17 15 13 13 13 11 9 7 8 9 9 9 10 11 11 10 10 10 11 12 12
26 23 21 21 22 22 22 22 23 24 24 23 23 23 22 20 19 18 18 18 17 17 16 17 16 14 12 12 11 9 9 9 9 9 9 10 9 10 10 11 12 14 15
22 21 21 21 22 22 22 23 23 22 21 21 20 19 19 19 17 14 13 14 14 14 15 17 17 16 15 15 11 11 11 10 10 9 9 9 10 10 11 11 12 14 15
22 21 21 21 22 22 23 24 19 18 17 16 15 15 16 14 12 12 11 11 11 11 15 16 16 17 16 15 14 12 11 11 10 9 9 9 10 11 11 12 12 14 14
23 22 21 21 22 23 23 23 25 21 17 17 16 15 14 13 12 11 10 10 10 11 15 16 17 17 16 15 14 13 11 10 9 8 8 9 10 11 11 12 13 14 14
24 22 22 22 22 23 23 23 23 23 23 22 18 16 15 14 13 11 10 10 14 13 15 16 17 16 16 15 13 13 11 10 9 9 8 9 10 11 12 13 13 14 14
23 23 22 22 22 22 22 22 22 22 22 22 21 19 18 15 14 13 13 16 16 16 16 15 15 16 15 14 14 13 11 10 9 8 8 9 10 11 13 13 14 13 14
24 22 22 23 23 23 23 23 23 23 22 22 22 22 21 18 21 21 20 19 18 17 17 17 15 14 14 14 12 11 10 10 9 8 9 10 11 11 12 13 14 15 15
23 24 24 24 24 24 24 24 23 23 23 23 23 21 16 21 22 22 21 20 19 18 17 16 12 12 12 10 11 9 9 10 9 10 11 11 11 12 13 13 14 14 16
29 27 25 25 25 25 25 24 23 23 23 23 23 21 17 22 22 22 21 21 20 19 18 17 15 14 14 12 11 10 10 11 11 11 12 12 12 13 14 15 15 16 17
28 27 27 26 25 25 25 25 24 23 23 22 22 22 21 22 22 22 22 21 21 20 19 18 18 17 15 14 13 13 14 14 13 12 13 14 14 15 15 16 16 17 18
31 30 29 28 27 26 26 26 25 24 24 23 22 22 22 22 22 22 21 21 21 20 19 19 18 18 18 16 15 14 14 14 13 13 13 14 15 16 16 17 17 18 19
32 32 32 31 31 29 28 27 26 25 24 23 23 22 22 22 22 22 22 21 21 21 21 20 19 18 17 17 17 16 15 15 15 15 15 16 17 17 18 18 19 19 19
30 32 33 32 31 31 31 29 28 26 25 24 24 23 23 23 22 22 22 22 22 21 21 21 20 20 18 16 16 15 15 15 16 16 16 17 18 19 19 20 20 20 20

GFSGL_con_lsi_036.txt.gz
Lid_Strength_Index
14 15 14 14 15 15 15 15 15 15 15 15 14 15 15 15 15 15 16 16 16 16 16 16 16 15 14 14 15 14 14 15 16 14 17 17 17 16 16 14 14 14 13
15 15 15 14 14 15 14 14 14 14 13 15 14 14 15 15 15 15 16 16 16 16 16 16 16 14 15 15 14 15 15 14 15 16 14 18 18 17 15 15 15 15 14
13 13 14 15 15 14 13 13 13 13 15 15 15 15 15 15 16 15 15 15 16 15 15 15 16 15 15 15 14 14 15 14 15 16 16 17 18 18 17 17 15 16 15
13 13 14 14 14 14 14 14 14 14 14 14 14 15 15 15 15 16 16 16 16 15 15 15 15 15 15 15 15 14 14 15 14 15 16 15 18 18 17 17 18 17 16
13 13 14 13 13 14 14 14 14 14 14 14 14 14 14 15 16 16 15 15 15 15 15 15 15 14 13 13 14 14 14 14 14 14 15 15 17 18 17 17 16 16 16
13 13 12 12 12 12 12 12 12 13 13 14 14 14 15 14 13 12 13 15 15 16 16 15 15 15 14 13 12 12 11 14 14 14 14 14 14 15 14 14 15 17 18
12 12 12 12 13 13 13 14 14 14 14 15 14 14 15 15 12 12 11 13 14 16 16 15 15 14 14 15 13 12 11 10 9 11 13 13 13 13 14 15 14 14 14
13 14 14 14 15 14 15 16 16 16 16 17 17 16 16 15 13 12 13 14 14 14 15 15 16 16 15 14 13 14 14 13 13 11 11 11 11 11 11 12 13 14 13
14 14 15 16 17 17 19 18 18 18 19 19 18 18 19 19 16 15 15 16 16 16 15 15 16 17 15 13 15 15 15 14 11 9 9 9 8 7 8 10 13 14 15
15 15 16 17 21 20 19 20 20 20 20 19 20 20 20 21 17 16 16 17 18 17 16 16 14 15 14 13 15 15 15 14 12 12 11 10 9 10 8 8 10 13 14
17 17 17 18 20 21 21 21 21 22 21 22 22 21 21 20 20 16 15 16 17 17 17 17 16 14 14 13 12 14 13 12 11 11 11 11 11 11 11 10 8 10 12
18 19 20 22 22 20 22 22 22 23 23 23 23 22 21 20 18 16 15 14 14 17 17 17 17 14 13 13 13 13 11 11 12 11 10 11 11 11 10 10 9 8 9
24 25 25 23 21 21 23 22 22 22 23 23 23 23 22 20 20 16 14 14 14 15 15 15 12 12 12 13 13 13 14 15 14 12 11 10 10 10 9 9 8 8 8
29 25 23 22 21 22 21 21 22 23 23 23 23 23 22 20 18 17 16 16 14 14 14 15 14 13 12 13 14 14 15 15 14 14 11 9 9 9 9 9 9 8 9
25 22 22 21 22 21 20 21 21 19 19 20 19 18 19 19 18 14 13 14 14 12 12 12 14 16 18 17 17 16 15 15 16 12 11 9 9 9 10 9 9 9 10
24 22 21 21 20 21 21 22 17 16 15 14 14 15 16 14 13 13 12 11 11 10 12 13 14 14 15 15 16 16 15 15 15 11 10 11 11 9 10 9 9 10 12
27 23 21 20 21 22 22 23 24 20 16 16 15 15 15 14 14 13 13 12 12 12 15 15 15 15 15 15 16 16 16 15 13 12 11 11 10 8 9 9 10 10 12
28 23 23 22 22 22 23 23 23 24 24 22 18 17 16 15 15 13 14 15 21 19 19 18 17 16 15 15 15 15 15 14 14 13 11 10 9 7 9 9 10 10 11
26 25 25 22 22 23 23 23 23 23 23 23 22 20 19 17 15 17 16 22 22 21 20 19 18 18 17 16 15 15 15 14 13 12 12 10 9 8 8 9 9 10 10
28 23 22 24 24 25 25 25 24 24 24 24 23 23 22 19 23 22 22 22 22 22 21 20 19 17 15 14 13 14 14 14 13 13 11 10 9 9 9 9 10 11 10
28 27 24 24 28 27 26 26 25 25 25 24 24 22 16 22 23 22 22 22 22 22 21 21 19 18 16 15 14 12 12 13 12 11 10 9 10 10 9 9 10 10 11
29 29 28 28 28 28 29 28 26 26 25 25 24 23 17 22 22 22 21 21 21 21 20 20 20 18 17 16 16 14 13 13 12 11 12 12 12 12 11 11 11 12 13
27 27 25 28 30 29 29 31 29 27 26 26 25 24 23 23 22 22 21 21 21 20 20 20 20 18 16 16 15 15 15 15 13 12 12 12 12 12 12 13 13 14 14
24 24 26 30 32 31 32 30 29 28 28 27 27 25 24 23 23 22 21 21 21 21 20 20 20 19 18 16 16 15 14 14 13 13 13 13 14 13 13 14 14 14 15
25 26 28 31 34 33 34 33 30 31 30 29 27 26 26 25 25 24 23 22 22 22 21 20 20 19 18 16 16 16 15 15 14 14 14 14 15 15 15 15 16 16 16
25 26 29 31 33 35 36 34 33 31 31 28 28 27 26 26 25 25 24 23 22 22 22 21 21 20 19 16 15 13 13 14 15 15 16 16 16 16 16 17 17 17 18

GFSGL_con_lsi_042.txt.gz
Lid_Strength_Index
15 15 15 14 14 14 14 14 14 14 14 14 14 14 15 15 15 16 16 16 17 16 15 15 16 15 15 15 14 14 14 16 17 15 14 14 14 14 14 15 15 15 14
14 14 14 14 14 14 14 14 14 15 14 14 14 15 15 15 15 15 16 16 16 16 16 16 15 14 15 15 15 15 14 13 15 17 15 15 14 14 14 14 14 15 15
14 14 14 14 14 14 14 14 14 15 15 15 15 15 15 15 16 15 15 15 15 16 16 16 15 15 15 14 15 16 15 14 14 15 16 14 14 13 14 15 14 14 15
13 14 14 14 14 14 14 14 15 15 16 16 16 16 16 16 16 15 15 15 15 15 15 15 15 15 15 15 15 14 14 15 15 15 15 15 14 13 15 15 14 14 14
14 14 14 13 14 14 15 16 16 16 17 17 17 17 16 16 15 15 15 15 15 15 15 14 14 14 13 13 14 15 15 15 15 15 15 14 15 14 15 14 14 14 13
14 14 14 14 15 15 16 17 17 17 17 16 16 16 17 16 13 12 12 14 14 15 16 15 15 15 14 13 12 12 13 15 16 15 15 15 15 14 13 13 13 14 15
14 14 15 16 17 17 17 17 17 17 17 17 17 17 17 17 14 12 12 14 15 15 16 16 16 15 15 15 14 13 13 13 12 15 17 16 16 15 14 13 13 13 14
16 17 17 17 18 17 17 17 17 17 18 18 18 18 18 17 14 13 13 14 16 16 16 16 16 16 16 15 15 15 15 14 14 14 15 16 15 15 14 13 14 13 12
15 16 16 17 18 18 20 18 18 19 19 19 18 19 19 19 16 14 14 15 16 16 16 16 16 16 15 13 15 16 15 14 12 11 11 11 10 10 11 13 15 15 15
14 15 16 17 21 21 19 20 20 21 19 19 19 19 20 21 17 15 14 15 17 16 15 15 14 14 12 12 14 15 16 15 14 15 14 13 12 13 11 12 13 15 15
16 16 17 18 21 20 22 21 22 22 20 22 21 21 21 20 19 14 13 14 15 15 15 15 15 13 12 12 11 13 14 13 13 13 13 13 13 13 13 12 12 12 13
17 17 19 21 20 20 26 24 25 25 25 24 23 22 19 18 16 14 12 11 11 14 15 14 14 12 11 11 10 10 9 9 12 15 16 16 15 15 14 13 12 12 11
20 22 21 21 20 21 25 22 23 25 25 23 21 21 20 17 17 13 12 11 11 13 13 12 11 11 10 11 11 10 11 13 14 15 16 15 15 14 14 14 14 13 13
24 21 20 21 20 20 20 20 23 24 23 22 21 21 19 16 15 15 14 13 11 12 12 13 12 13 13 13 14 13 13 13 14 15 15 15 14 15 16 15 15 15 15
22 20 20 21 22 21 20 20 20 19 19 20 18 16 16 17 16 12 11 13 13 12 14 17 20 20 19 18 18 17 15 15 15 15 15 16 16 16 16 14 15 15 17
21 20 20 21 21 20 21 21 16 14 12 11 11 12 14 12 11 11 11 11 12 13 19 24 23 22 22 21 20 19 18 18 17 16 16 15 15 15 15 15 14 15 16
22 21 21 21 22 22 23 22 23 19 15 14 14 13 13 12 12 11 12 12 15 17 27 25 24 23 22 21 20 20 20 18 17 17 16 15 14 15 15 14 14 14 13
26 22 25 24 24 24 23 23 24 25 25 23 18 16 14 14 13 13 13 17 24 23 30 25 24 23 22 21 21 20 19 18 17 16 15 14 14 14 14 14 12 11 10
27 26 26 25 25 25 24 25 26 27 27 25 24 20 20 16 15 16 16 29 25 24 23 23 22 21 21 21 21 20 19 18 17 16 13 14 15 14 13 12 12 11 9
28 24 25 27 27 28 27 27 27 28 27 27 26 25 25 24 28 26 27 29 26 23 22 22 21 20 20 21 20 20 19 17 16 15 14 13 13 13 13 11 11 11 10
27 29 26 29 31 29 29 29 27 28 27 26 26 27 17 23 27 29 27 26 25 24 23 22 21 21 20 20 20 19 18 17 16 15 15 14 12 12 11 10 9 10 10
28 29 33 31 29 29 29 28 28 27 26 27 28 30 19 31 31 30 28 27 26 25 23 23 22 21 21 20 20 19 18 16 16 16 15 15 13 13 13 12 12 11 10
29 29 29 31 30 28 27 27 28 26 26 29 30 29 32 31 33 31 29 27 26 26 24 24 23 23 21 20 19 19 17 16 15 16 16 15 14 14 13 14 14 14 14
24 24 24 25 25 25 25 25 25 25 27 29 31 32 32 32 32 30 29 28 27 26 25 25 24 24 23 22 21 18 17 14 14 16 16 16 16 15 15 14 14 13 13
23 23 23 23 24 24 24 24 24 26 29 30 30 33 34 32 32 31 30 28 28 27 26 26 24 24 23 23 22 21 19 13 15 15 16 16 16 16 16 15 15 14 15
23 23 24 24 24 24 25 25 26 28 30 30 32 33 33 32 31 31 30 29 28 28 28 26 25 26 25 23 22 19 15 11 13 15 16 17 17 17 17 17 17 17 17

GFSGL_con_lsi_045.txt.gz
Lid_Strength_Index
14 14 14 14 14 14 14 14 14 14 14 14 14 14 14 14 14 14 14 14 14 14 14 14 14 13 13 13 12 12 12 13 14 14 13 13 13 13 12 11 11 11 11
14 14 14 14 14 14 14 14 14 15 14 15 15 15 15 15 15 15 15 14 14 15 14 14 14 14 14 13 13 13 13 12 13 15 14 14 14 13 13 13 12 12 12
14 14 14 14 14 14 14 14 14 15 15 16 16 16 16 16 16 15 15 15 15 15 15 15 15 15 14 14 14 14 13 13 13 14 14 14 14 13 13 12 13 12 11
14 14 13 13 13 13 14 15 16 16 16 16 16 16 16 16 16 16 15 15 15 15 15 15 15 15 15 14 14 14 13 14 14 14 14 15 14 13 13 13 13 12 13
13 13 13 13 13 14 15 15 16 16 16 17 17 17 17 16 16 15 14 14 14 14 14 14 14 14 13 13 13 13 13 14 14 14 15 15 15 14 14 12 13 12 12
13 13 13 13 14 15 16 16 16 16 17 16 16 17 17 16 13 12 12 13 14 14 15 14 14 14 14 13 12 12 12 14 15 15 15 16 15 15 14 14 14 14 15
13 13 14 15 16 16 16 16 17 17 17 17 17 16 17 16 13 12 12 13 14 14 15 15 15 14 14 15 14 13 13 12 12 13 15 15 15 15 15 16 16 16 16
14 15 15 17 17 16 17 17 17 17 17 17 17 17 17 16 13 12 12 13 14 14 15 15 15 15 15 14 14 14 14 14 13 13 13 13 13 13 13 14 15 15 14
15 15 16 17 18 17 19 18 17 18 18 18 17 17 18 18 14 13 13 14 15 15 14 14 14 14 13 12 13 14 13 13 11 11 11 11 10 10 11 12 14 15 17
15 15 16 17 19 19 18 19 18 19 18 18 18 18 19 19 16 14 13 13 15 14 14 13 12 12 11 10 11 13 14 14 13 13 12 12 11 11 10 11 12 15 15
16 16 17 17 19 19 19 19 20 20 19 21 20 20 19 18 18 14 12 12 13 13 13 13 12 10 10 10 9 11 12 11 11 12 12 11 11 11 11 11 11 12 14
17 17 19 20 19 19 23 21 21 22 22 22 22 20 18 17 15 13 11 10 10 12 12 12 12 10 9 9 10 10 9 10 11 12 13 13 13 13 12 12 12 11 11
19 21 22 21 19 20 22 21 20 20 22 21 20 20 19 16 16 13 11 10 9 10 11 10 10 11 11 13 13 12 13 14 14 14 14 13 12 12 12 12 12 12 12
22 21 21 21 20 20 19 19 21 21 21 20 20 20 18 17 14 13 13 11 10 10 11 13 13 15 15 15 16 16 16 16 16 16 16 14 13 13 14 13 14 14 15
22 21 20 20 20 20 20 20 19 18 19 21 20 19 17 15 14 11 10 10 10 11 15 19 20 20 20 19 19 19 18 18 18 17 17 17 15 15 14 13 14 15 16
21 20 20 20 20 20 20 20 16 13 12 11 10 10 12 11 10 10 9 9 10 12 19 23 22 22 21 21 21 20 19 19 18 17 17 16 16 15 15 14 13 14 16
22 20 20 20 21 21 22 21 21 18 15 13 12 11 11 11 10 10 10 10 14 16 23 23 23 22 22 21 21 20 20 18 17 17 17 16 15 15 15 14 14 14 14
25 22 23 22 23 23 23 22 22 23 23 22 18 15 13 12 12 11 12 16 22 22 24 24 23 22 21 20 20 20 19 19 18 17 17 16 15 13 14 14 14 14 13
25 25 25 25 25 24 23 23 23 25 25 25 23 20 18 15 14 14 16 24 26 24 23 23 22 21 20 20 20 19 19 19 18 18 16 15 14 14 14 13 13 13 13
29 25 24 25 25 25 25 25 24 26 25 25 24 24 24 23 23 25 25 26 26 25 24 24 23 22 21 20 20 20 19 19 18 17 16 15 15 14 14 13 12 12 11
28 28 25 26 26 26 26 27 25 26 26 26 25 23 16 17 23 27 27 27 26 25 25 24 23 23 22 21 21 20 20 19 18 17 15 15 16 15 14 13 12 11 10
29 29 28 28 26 26 27 27 27 27 26 26 24 23 17 23 27 28 28 28 26 26 25 25 24 23 23 22 21 21 21 20 18 17 15 16 16 15 14 13 13 12 11
29 29 29 29 28 28 28 28 27 26 25 25 24 24 25 26 28 29 28 27 27 27 26 26 25 25 23 23 21 21 21 19 18 16 16 17 17 16 15 15 14 13 12
27 27 25 26 25 24 24 25 24 24 24 23 24 25 27 28 29 30 29 28 28 28 27 27 26 26 25 24 22 21 21 19 17 14 15 17 17 16 16 15 15 14 14
28 26 25 24 24 23 23 23 23 23 23 23 24 26 29 30 30 30 30 30 30 29 28 28 27 26 26 25 25 24 22 19 14 14 16 17 17 17 17 16 16 16 15
26 25 26 25 24 24 24 24 24 23 24 24 26 29 30 30 30 30 30 30 29 29 29 28 27 27 27 25 24 21 18 15 12 14 16 17 18 17 17 17 17 17 17

GFSGL_con_lsi_048.txt.gz
Lid_Strength_Index
12 12 12 12 12 12 12 12 13 13 13 13 13 13 13 13 13 13 13 12 12 12 12 12 12 11 12 11 11 11 11 11 13 12 11 10 10 10 9 10 10 11 11
12 12 12 12 12 12 12 13 13 13 13 14 14 14 13 13 13 13 13 13 13 13 13 13 13 12 13 12 12 12 12 12 12 14 12 12 11 10 10 10 10 10 11
12 12 12 12 12 12 12 13 13 13 14 14 14 14 14 14 14 13 13 13 13 12 12 13 13 13 13 13 13 13 13 13 12 13 14 12 11 11 11 11 10 9 10
12 12 12 12 12 12 12 13 14 14 14 14 14 14 14 14 14 13 12 12 11 11 11 12 12 12 12 13 13 13 13 13 13 13 14 13 13 13 12 12 12 10 10
12 12 12 11 11 12 13 13 14 14 15 15 15 14 14 14 13 12 12 11 11 11 11 11 11 11 12 12 12 12 12 13 13 14 14 14 14 14 14 13 13 12 11
12 12 11 11 12 12 13 14 15 15 15 15 15 15 14 14 13 11 11 11 11 12 12 12 12 12 12 11 11 11 11 13 14 14 14 15 14 14 13 14 14 15 16
12 11 11 12 13 13 14 15 15 15 15 15 15 14 14 13 13 11 11 11 11 12 13 13 13 12 12 13 12 12 12 11 11 12 14 14 14 13 13 14 14 15 15
11 11 12 13 14 14 15 15 16 15 15 15 14 14 14 14 13 12 11 11 12 12 12 12 13 13 12 12 12 12 12 11 11 11 11 12 12 11 12 12 12 12 12
11 12 12 13 14 15 16 16 15 15 15 15 14 15 15 15 14 12 12 12 12 12 12 12 12 12 11 10 11 11 11 10 9 8 9 9 9 9 9 10 12 13 14
11 12 12 14 16 16 16 16 15 15 15 15 15 15 16 16 14 13 12 11 12 11 11 11 10 10 9 9 10 11 11 10 10 10 9 9 9 10 9 10 11 13 13
12 13 14 15 16 16 16 16 16 16 16 16 16 15 16 15 15 13 11 11 11 11 11 11 10 9 9 8 8 10 11 10 10 11 10 10 10 10 10 10 10 11 13
14 14 15 17 16 17 18 17 17 17 17 17 17 16 14 14 13 12 11 10 9 10 11 10 10 9 9 9 10 10 10 10 12 13 13 12 12 11 11 10 10 10 10
16 17 17 18 17 17 17 17 16 16 16 16 15 15 14 13 12 11 11 10 9 10 9 9 10 11 11 12 12 12 13 14 14 15 15 14 13 12 12 12 11 11 11
17 17 18 18 17 17 16 15 16 15 15 15 15 15 14 13 12 11 11 10 9 9 9 12 12 13 13 13 15 14 15 15 16 16 16 15 14 14 14 13 13 13 13
16 17 16 16 16 15 15 15 15 14 15 16 15 15 14 13 11 9 8 9 8 8 11 13 14 15 16 16 16 16 16 16 17 16 17 16 16 15 14 13 13 13 13
16 16 15 15 15 15 15 15 14 13 12 11 10 10 10 8 8 8 7 7 8 10 13 16 16 17 17 17 17 17 17 17 17 17 17 16 15 15 14 13 12 13 13
14 14 14 15 15 15 16 16 16 14 14 13 12 11 9 9 9 8 8 8 11 13 16 17 18 18 17 17 17 17 17 16 16 16 16 16 15 15 14 14 12 12 12
17 17 15 15 15 15 16 16 17 17 17 16 15 14 12 11 10 10 9 10 15 16 17 18 18 18 18 18 18 17 17 17 17 16 16 16 15 15 15 14 13 13 12
18 17 17 17 17 17 17 18 18 18 19 18 18 16 15 14 12 11 11 16 18 19 19 19 18 18 18 18 18 17 17 17 17 17 16 16 15 15 15 14 14 13 12
20 20 20 18 18 19 19 19 19 19 19 19 18 18 17 18 17 16 17 18 19 19 19 20 19 19 19 19 19 18 18 18 17 17 16 16 14 14 15 15 14 13 12
19 19 21 19 20 19 19 19 19 19 19 19 18 17 16 17 15 16 18 19 20 20 20 20 20 20 20 19 19 19 18 18 17 17 16 16 15 15 15 14 14 13 12
20 20 21 21 20 20 20 20 20 20 20 20 19 18 15 16 17 19 20 20 21 21 21 21 21 20 20 20 20 19 19 19 18 17 16 16 14 15 15 15 14 14 13
22 21 21 21 21 22 22 21 21 21 20 20 20 20 20 20 20 21 21 22 22 22 21 22 22 22 21 21 20 19 20 20 18 17 17 16 15 15 15 15 15 15 14
21 21 20 20 20 20 20 20 20 20 20 20 20 20 20 20 21 22 23 23 23 22 22 23 23 23 23 23 21 20 19 19 18 18 16 14 15 15 15 15 15 15 15
20 20 21 20 20 20 20 20 19 20 20 20 20 20 20 21 22 23 23 23 24 24 24 24 24 23 23 24 23 23 22 21 20 16 13 14 15 15 15 15 16 15 16
20 21 20 20 20 20 20 21 21 20 20 20 20 21 21 22 23 24 24 24 24 24 24 24 24 24 24 23 23 21 20 17 16 13 14 14 15 15 15 15 15 15 16